Location: Unspecified
(48.2082°N, 0.0000°E)
Time: 05:19:32
(UTC+00:00)

Transit 4A - Pass Details

Date: 24 June 2019
Orbit: 863 x 981 km, 66.8° (Epoch: 22 August)

Event Time Altitude Azimuth Distance (km) Brightness Sun altitude
Rises 11:08:27 0° 287° (WNW) 3,672 10.8 63.0°
Reaches altitude 10° 11:12:10 10° 308° (NW) 2,736 10.2 63.3°
Maximum altitude 11:16:02 16° 345° (NNW) 2,315 9.9 63.5°
Drops below altitude 10° 11:19:54 10° 23° (NNE) 2,743 10.3 63.8°
Sets 11:23:39 0° 44° (NE) 3,685 10.9 64.0°
